Location: Unspecified
(41.5516°N, 88.1098°W)
Time: 02:39:57
(UTC-05:00)

Cosmos 1674 - Visible Passes

Search period start: 29 May 2016 00:00
Search period end: 08 June 2016 00:00
Orbit: 500 x 526 km, 82.5° (Epoch: 27 May)

Date Brightness Start Highest point End Pass type
(mag) Time Alt. Az. Time Alt. Az. Time Alt. Az.
29 May 3.8 01:25:43 42° NNE 01:25:43 42° NNE 01:28:19 10° N visible
30 May 3.9 01:10:04 38° NNE 01:10:04 38° NNE 01:12:34 10° NNE visible
31 May 4.1 00:54:24 34° NE 00:54:24 34° NE 00:56:47 10° NNE visible
31 May 5.3 02:29:21 10° WNW 02:29:21 10° WNW 02:29:45 10° WNW visible
01 Jun 4.3 00:38:43 29° NE 00:38:43 29° NE 00:40:57 10° NNE visible
01 Jun 5.1 02:13:40 13° WNW 02:13:40 13° WNW 02:15:03 10° NW visible
02 Jun 4.5 00:23:01 25° NE 00:23:01 25° NE 00:25:05 10° NNE visible
02 Jun 5.0 01:57:58 15° WNW 01:57:58 15° WNW 01:59:50 10° NNW visible
03 Jun 4.7 00:07:18 21° ENE 00:07:18 21° ENE 00:09:11 10° NNE visible
03 Jun 4.8 01:42:16 19° WNW 01:42:16 19° WNW 01:44:27 10° NNW visible
03 Jun 4.8 23:51:35 18° ENE 23:51:35 18° ENE 23:53:12 10° NE visible
04 Jun 4.6 01:26:32 22° WNW 01:26:32 22° WNW 01:28:58 10° NNW visible
04 Jun 5.0 23:35:51 15° ENE 23:35:51 15° ENE 23:37:08 10° NE visible
05 Jun 4.4 01:10:48 27° NW 01:10:48 27° NW 01:13:25 10° NNW visible
05 Jun 5.1 23:20:06 12° ENE 23:20:06 12° ENE 23:20:55 10° NE visible
06 Jun 4.1 00:55:03 32° NW 00:55:03 32° NW 00:57:49 10° N visible
06 Jun 5.3 23:04:20 10° ENE 23:04:20 10° ENE 23:04:22 10° ENE visible
07 Jun 3.8 00:39:16 39° NW 00:39:16 39° NW 00:42:11 10° N visible
